Regional Weather Roundup
Issued by NWS

Home | Current Version | Previous Version | Graphics & Text | Print | Product List | Glossary On
Versions: 1 2 3 4 5 6 7 8 9 10 11 12 13 14 15 16 17 18 19 20 21 22 23 24 25 26 27 28 29 30 31 32 33 34 35 36 37 38 39 40 41 42 43 44 45 46 47 48 49 50
000
ASUS43 KDMX 152001
RWRIA

WEATHER ROUNDUP FOR IOWA
NATIONAL WEATHER SERVICE DES MOINES IA
200 PM CST FRI DEC 15 2017

NOTE: "FAIR" INDICATES FEW OR NO CLOUDS BELOW 12,000 FEET WITH NO
SIGNIFICANT WEATHER AND/OR OBSTRUCTIONS TO VISIBILITY.

* - THESE STATIONS ARE NOT NWS STATIONS...THUS NOT UNDER NWS
QUALITY CONTROL.  THEY ALSO DO NOT REPORT WEATHER SUCH
AS PRECIPITATION OR FOG.

IAZ001>003-012>014-020>022-031>034-043>046-152100-
   NORTHWEST IOWA

CITY           SKY/WX    TMP DP  RH WIND       PRES   REMARKS
CARROLL *      SUNNY     45  23  42 SW21G30   29.84F
CHEROKEE *     CLOUDY    44  24  46 SW13      29.82F
DENISON *      SUNNY     45  25  45 SW18G28   29.86F
LE MARS *      CLOUDY    43  25  49 SW12      29.81F
ORANGE CITY *  CLOUDY    43  27  52 SW15      29.79F
SHELDON *      CLOUDY    41  25  52 SW13G18   29.77F
SIOUX CITY     CLOUDY    42  26  53 SW12      29.83F
SPENCER        CLOUDY    43  24  47 SW16      29.79F
STORM LAKE *   MOSUNNY   45  23  42 SW23      29.81F
$$

IAZ055>058-069>071-079>083-090>094-152100-
   SOUTHWEST IOWA

CITY           SKY/WX    TMP DP  RH WIND       PRES   REMARKS
ATLANTIC *     SUNNY     45  23  42 SW20G28   29.89F
AUDUBON *      SUNNY     45  23  42 SW17G26   29.88F
CLARINDA *     SUNNY     46  21  36 W20G28      N/A
COUNCIL BLFS * SUNNY     45  27  49 SW17G25   29.89F
CRESTON *      SUNNY     45  19  36 SW24      29.93F
HARLAN  *      SUNNY     45  25  45 SW17G24   29.91F
LAMONI         SUNNY     43  20  39 SW22G29   29.95F
RED OAK *      MOSUNNY   45  25  45 SW18G26   29.92F
SHENANDOAH *   SUNNY     46  25  42 SW23G33   29.94F
$$

IAZ047>049-059>061-072>074-084-152100-
   CENTRAL IOWA

CITY           SKY/WX    TMP DP  RH WIND       PRES   REMARKS
AMES           MOSUNNY   45  25  45 W21G30    29.87F
ANKENY *       MOSUNNY   45  23  42 W16G22    29.90F
BOONE *        PTSUNNY   43  23  45 W18G30    29.85F
CHARITON *     MOSUNNY   45  19  36 SW21      29.92F
DES MOINES     CLOUDY    44  21  40 W21G29    29.89F
GRINNELL*      MOSUNNY   41  25  52 W15G21    29.90F
KNOXVILLE *    CLOUDY    45  19  36 W17G30    29.90F
MARSHALLTOWN   CLOUDY    43  24  47 W17       29.85F
NEWTON *       CLOUDY    43  23  45 W17G24    29.89F
PELLA *        CLOUDY    44  22  42 W16       29.92F
PERRY *        PTSUNNY   45  20  36 W23G29    29.88F
$$

IAZ004>006-015-016-023>025-035-036-152100-
   NORTH CENTRAL IOWA

CITY           SKY/WX    TMP DP  RH WIND       PRES   REMARKS
ALGONA *       SUNNY     43  27  52 W18       29.81F
CLARION *      SUNNY     43  25  49 W21G26    29.83F
ESTHERVILLE    SUNNY     40  27  59 SW15      29.78F WCI  32
FORT DODGE *   SUNNY     42  23  46 SW14      29.84F
MASON CITY     MOSUNNY   40  26  57 W16       29.82F WCI  31
FOREST CITY *    N/A     41  28  60 W13       29.81S
WEBSTER CITY * SUNNY     45  23  42 W21G29    29.82F
IOWA FALLS *     N/A     43  27  53 SW17G23   29.85F
$$

IAZ007>011-017>019-026>030-037>042-050>054-066-152100-
   NORTHEAST IOWA

CITY           SKY/WX    TMP DP  RH WIND       PRES   REMARKS
CEDAR RAPIDS   CLOUDY    39  26  59 W17       29.88F WCI  30
CHARLES CITY * CLOUDY    37  30  75 W9        29.83F WCI  31
CLINTON *      CLOUDY    35  24  64 W18       29.90F WCI  24
DECORAH *      MIX PCPN  32  28  86 VRB6      29.81F WCI  26
DUBUQUE        CLOUDY    31  26  82 W13       29.85F WCI  21
MONTICELLO *   CLOUDY    36  27  69 W13       29.87F WCI  27
OELWEIN *      CLOUDY    36  30  80 W16       29.84F WCI  26
WATERLOO       CLOUDY    39  26  59 W15       29.85F WCI  31
$$

IAZ064-065-067-068-078-152100-
   EAST CENTRAL IOWA

CITY           SKY/WX    TMP DP  RH WIND       PRES   REMARKS
DAVENPORT      CLOUDY    35  23  61 W17G25    29.94F WCI  25
IOWA CITY      CLOUDY    39  25  57 SW15      29.93F WCI  31
MT. PLEASANT * CLOUDY    40  22  48 SW17      29.95F WCI  31
MUSCATINE *    CLOUDY    39  23  52 W15       29.94F WCI  31
QUAD CITIES    CLOUDY    37  23  56 W15       29.92F WCI  28
$$

IAZ062-063-075>077-085>089-095>099-152100-
   SOUTHEAST IOWA

CITY           SKY/WX    TMP DP  RH WIND       PRES   REMARKS
BURLINGTON     CLOUDY    39  23  52 SW13      29.95F WCI  31
FAIRFIELD *    CLOUDY    43  21  42 W20       29.93F
FORT MADISON * CLOUDY    41  21  45 SW14      29.97F
KEOKUK *       CLOUDY    41  21  45 SW16      29.97F
OSKALOOSA *      N/A     43  23  45 W21       29.93F
OTTUMWA        CLOUDY    42  22  44 W14G23    29.93F
WASHINGTON *   CLOUDY    39  25  56 SW13      29.94F WCI  32
$$

ABBREVIATIONS USED IN REMARKS
   TC - TEMPERATURES IN CELSIUS
  WCI - WIND CHILL INDEX
   HX - HEAT INDEX
  VSB - VISIBILITY
$$





USA.gov is the U.S. government's official web portal to all federal, state and local government web resources and services.